Location: Unspecified
(0.0000°N, 0.0000°E)
Time: 13:42:45
(UTC+00:00)

PAYLOAD G - Pass Details

Date: 08 August 2024
Orbit: 808 x 820 km, 98.7° (Epoch: 06 September)

Event Time Altitude Azimuth Distance (km) Brightness Sun altitude
Rises 18:36:28 0° 189° (S) 3,324 ? -7.4°
Reaches altitude 10° 18:39:09 10° 201° (SSW) 2,391 ? -8.1°
Maximum altitude 18:43:30 26° 257° (WSW) 1,531 ? -9.1°
Drops below altitude 10° 18:47:51 10° 313° (NW) 2,387 ? -10.2°
Sets 18:50:32 0° 325° (NW) 3,317 ? -10.8°
